Hourly Data Report for January 04, 2022

OTTAWA INTL A
ONTARIO
Current Station Operator: NAVCAN

45°19'00.000" N
75°40'00.000" W
114.90 m
6106001
71628
YOW

Download Data

Hourly Data (January 2022)
Hourly Data Report for January 4, 2022
TIME
LST
Temp Definition
°C
Dew Point Definition
°C
Rel Hum Definition
%
Precip. Amount Definition
mm

Wind Dir Definition
10's deg

Wind Spd Definition
km/h
Visibility Definition
km
Stn Press Definition
kPa
Hmdx Definition


Wind Chill Definition


Weather Definition


00:00 -16.0 -19.9 72   18 11 24.1 101.14   -23 LegendNANA
01:00 -14.4 -18.7 70   19 10 24.1 101.10   -21 Cloudy
02:00 -13.8 -17.9 72   17 8 24.1 101.12   -19 LegendNANA
03:00 -13.2 -17.4 71   17 11 24.1 101.07   -19 LegendNANA
04:00 -12.2 -16.2 72   18 14 24.1 100.94   -19 Cloudy
05:00 -11.2 -14.8 75   19 10 24.1 100.86   -17 LegendNANA
06:00 -9.7 -12.6 80   20 15 16.1 100.84   -16 LegendNANA
07:00 -8.3 -10.6 84   20 17 16.1 100.84   -15 Snow
08:00 -7.6 -9.7 85   21 10 24.1 100.83   -12 LegendNANA
09:00 -7.0 -9.1 85   21 17 24.1 100.87   -13 LegendNANA
10:00 -6.7 -8.9 84   22 13 24.1 100.89   -12 Cloudy
11:00 -5.6 -8.2 82   19 17 24.1 100.82   -12 LegendNANA
12:00 -4.5 -7.8 78   21 16 24.1 100.76   -10 LegendNANA
13:00 -3.7 -7.2 76   20 15 24.1 100.67   -9 Cloudy
14:00 -3.3 -6.9 76   20 13 24.1 100.62   -8 LegendNANA
15:00 -2.5 -6.3 75   22 8 24.1 100.59   -6 LegendNANA
16:00 -2.5 -6.1 76   19 11 24.1 100.60   -7 Cloudy
17:00 -2.8 -5.9 79   19 12 24.1 100.62   -7 LegendNANA
18:00 -3.5 -5.8 84   16 9 24.1 100.59   -7 LegendNANA
19:00 -3.5 -5.7 85   15 10 24.1 100.56   -7 Cloudy
20:00 -2.8 -5.0 85   15 11 24.1 100.54   -7 LegendNANA
21:00 -1.4 -4.1 82   18 13 24.1 100.46   -6 LegendNANA
22:00 -1.5 -5.0 77   14 17 24.1 100.33   -7 Cloudy
23:00 -1.5 -5.5 74   16 23 24.1 100.19   -8 LegendNANA

Notes on Data Quality.

Legend

  • E = Estimated
  • M = Missing
  • NA = Not Available*
  • [empty] = Indicates an unobserved value
Date modified: